Location: Shepherdstown, WV
(39.4326°N, 77.8042°W)
Time: 15:51:07
(UTC-04:00)

S-56A Canister/Altair - Pass Details

Date: 30 July 2021
Orbit: 632 x 2500 km, 38.9° (Epoch: 15 September)

Event Time Altitude Azimuth Distance (km) Brightness Sun altitude
Rises 22:16:27 0° 288° (WNW) 6,165 13.3 -18.5°
Reaches altitude 10° 22:20:51 10° 284° (WNW) 5,075 12.5 -19.1°
Maximum altitude 22:34:02 46° 218° (SW) 2,580 10.0 -20.8°
Enters shadow 22:39:55 27° 164° (SSE) 2,973 10.0 -21.6°
